Content
SEND FEEDBACK

Daily
Averages
Monthly
Summary
Czech Republic

HAVLICKUV BROD, CZECH REPUBLIC


Home > Europe > Czech Republic
Elevation: 4062 feet     Latitude: 49 36N     Longitude: 015 36E

WEATHER
 
SELECT A DAY
Number of Records: 42,903;   Date Range: 1/27/05 - 9/29/14
 
SHARE

PRINT THIS DATA

[ ← Previous Day ]
WEATHER ALMANAC - JANUARY 23, 2013
[ Next Day → ]
[ °C ]   °F
Weather ElementAverageHighLow
Temperature22.6 °F24.8 °F (1:00 pm)19.4 °F (1:00 am)
Dewpoint19.1 °F21.2 °F (2:00 pm)15.8 °F (2:00 am)
Humidity86.3 %93 % (1:00 am)80 % (1:00 pm)
Barometer29.76 in29.77 in (7:00 am)29.74 in (1:00 am)
Wind Speed1.1 mph3.5 mph (3:00 am)
Weather ElementAverage
Visibility4.2 mi
Wind DirectionESE (96.1 °)

Weather ElementTotal
Precipitation---
Heating Degree Days42.9 (Base 65)
Averaged from 23 records on January 23, 2013
WEATHER CONDITIONS BREAKOUT
WIND DIRECTION BREAKOUT
WEATHER BY HOUR - JANUARY 23, 2013
[ °C ]   °F
Local TimeTemperatureDewpointHumidityBarometerVisibilityWind DirectionWind SpeedGust SpeedPrecipitationEventsConditions
1:00 AM19.4 °F17.6 °F93 %29.74 in2.5 miWest (280°)2.3 mphOvercast
2:00 AM19.4 °F15.8 °F86 %29.74 in2.5 miWest (280°)2.3 mphOvercast
3:00 AM19.4 °F15.8 °F86 %29.74 in3.1 miWest (280°)3.5 mphOvercast
4:00 AM19.4 °F15.8 °F86 %29.74 in5.0 miCalmOvercast
5:00 AM19.4 °F15.8 °F86 %29.74 in6.2 miSW (230°)1.2 mphOvercast
6:00 AM19.4 °F17.6 °F93 %29.74 in5.0 miWSW (250°)1.2 mphOvercast
7:00 AM21.2 °F17.6 °F86 %29.77 in5.0 miSW (220°)3.5 mphOvercast
8:00 AM21.2 °F17.6 °F86 %29.77 in5.0 miCalmOvercast
9:00 AM21.2 °F17.6 °F86 %29.77 in4.3 miCalmOvercast
10:00 AM21.2 °F17.6 °F86 %29.77 in3.7 miCalmOvercast
11:00 AM23.0 °F19.4 °F86 %29.77 in3.7 miCalmOvercast
12:00 PM23.0 °F19.4 °F86 %29.77 in3.7 miCalmOvercast
1:00 PM24.8 °F19.4 °F80 %29.77 in3.7 miCalmOvercast
2:00 PM24.8 °F21.2 °F86 %29.77 in3.7 miVariable1.2 mphOvercast
3:00 PM24.8 °F21.2 °F86 %29.77 in3.7 miENE (70°)3.5 mphOvercast
4:00 PM24.8 °F21.2 °F86 %29.77 in3.7 miVariable1.2 mphOvercast
5:00 PM24.8 °F21.2 °F86 %29.77 in3.1 miNNE (20°)2.3 mphOvercast
6:00 PM24.8 °F21.2 °F86 %29.77 in5.0 miVariable1.2 mphOvercast
7:00 PM24.8 °F21.2 °F86 %29.77 in5.0 miCalmOvercast
8:00 PM24.8 °F21.2 °F86 %29.77 in5.0 miCalmOvercast
9:00 PM24.8 °F21.2 °F86 %29.77 in5.0 miWest (270°)1.2 mphOvercast
10:00 PM24.8 °F21.2 °F86 %29.77 in5.0 miNW (310°)1.2 mphOvercast
11:00 PM24.8 °F21.2 °F86 %29.77 in5.0 miCalmOvercast
Hourly data recorded from LKCV, located miles away from Havlickuv Brod, Czech Republic







STORIES FROM OUR PARTNERS